Location: Trois-Rivi�res
(46.3500°N, 72.5500°W)
Time: 10:42:07
(UTC-04:00)

Tiangong 1 - Pass Details

Date: 16 October 2017
Orbit: 293 x 320 km, 42.8° (Epoch: 19 October)

Event Time Altitude Azimuth Distance (km) Brightness Sun altitude
Rises 18:51:43 0° 266° (W) 2,047 7.2 -9.4°
Reaches altitude 10° 18:54:26 10° 236° (SW) 1,208 4.6 -9.9°
Maximum altitude 18:55:47 13° 206° (SSW) 1,052 3.7 -10.1°
Drops below altitude 10° 18:57:08 10° 176° (S) 1,198 3.5 -10.4°
Enters shadow 18:59:06 - 150° (SSE) 1,770 4.2 -10.7°
